Time,TemperatureF,DewpointF,PressureIn,WindDirection,WindDirectionDegrees,WindSpeedMPH,WindSpeedGustMPH,Humidity,HourlyPrecipIn,Conditions,Clouds,dailyrainin,SoftwareType,DateUTC
2017-07-27 00:05:00,68.5,64.0,29.90,WSW,238,0.0,-999.0,85,-99.99,,,0.00,weatherlink.com 1.10,2017-07-27 07:05:00,
2017-07-27 00:20:00,68.3,64.0,29.90,WSW,238,0.0,-999.0,86,-99.99,,,0.00,weatherlink.com 1.10,2017-07-27 07:20:00,
2017-07-27 00:35:00,68.1,64.0,29.90,WSW,238,0.0,-999.0,86,-99.99,,,0.00,weatherlink.com 1.10,2017-07-27 07:35:00,
2017-07-27 00:50:00,68.0,64.0,29.90,WSW,238,0.0,-999.0,86,-99.99,,,0.00,weatherlink.com 1.10,2017-07-27 07:50:00,
2017-07-27 01:05:00,67.8,64.0,29.89,WSW,238,0.0,-999.0,87,-99.99,,,0.00,weatherlink.com 1.10,2017-07-27 08:05:00,
2017-07-27 01:20:00,67.7,64.0,29.89,WSW,238,0.0,-999.0,87,-99.99,,,0.00,weatherlink.com 1.10,2017-07-27 08:20:00,
2017-07-27 01:35:00,67.6,64.0,29.89,WSW,238,0.0,-999.0,87,-99.99,,,0.00,weatherlink.com 1.10,2017-07-27 08:35:00,
2017-07-27 01:50:00,67.4,64.0,29.89,WSW,238,0.0,-999.0,87,-99.99,,,0.00,weatherlink.com 1.10,2017-07-27 08:50:00,
2017-07-27 02:05:00,67.3,64.0,29.89,WSW,238,0.0,-999.0,88,-99.99,,,0.00,weatherlink.com 1.10,2017-07-27 09:05:00,
2017-07-27 02:20:00,67.1,64.0,29.88,WSW,238,0.0,-999.0,88,-99.99,,,0.00,weatherlink.com 1.10,2017-07-27 09:20:00,
2017-07-27 02:35:00,67.0,63.0,29.88,WSW,239,0.0,-999.0,88,-99.99,,,0.00,weatherlink.com 1.10,2017-07-27 09:35:00,
2017-07-27 02:50:00,66.9,63.0,29.88,WSW,239,0.0,-999.0,88,-99.99,,,0.00,weatherlink.com 1.10,2017-07-27 09:50:00,
2017-07-27 03:05:00,66.8,64.0,29.88,WSW,239,0.0,-999.0,89,-99.99,,,0.00,weatherlink.com 1.10,2017-07-27 10:05:00,
2017-07-27 03:20:00,66.8,64.0,29.87,WSW,239,0.0,-999.0,89,-99.99,,,0.00,weatherlink.com 1.10,2017-07-27 10:20:00,
2017-07-27 03:35:00,66.6,63.0,29.87,WSW,239,0.0,-999.0,89,-99.99,,,0.00,weatherlink.com 1.10,2017-07-27 10:35:00,
2017-07-27 03:50:00,66.4,63.0,29.87,WSW,239,0.0,-999.0,89,-99.99,,,0.00,weatherlink.com 1.10,2017-07-27 10:50:00,
2017-07-27 04:05:00,66.1,63.0,29.87,WSW,239,0.0,-999.0,89,-99.99,,,0.00,weatherlink.com 1.10,2017-07-27 11:05:00,
2017-07-27 04:20:00,65.8,63.0,29.88,WSW,239,0.0,-999.0,89,-99.99,,,0.00,weatherlink.com 1.10,2017-07-27 11:20:00,
2017-07-27 04:35:00,65.4,62.0,29.88,WSW,239,0.0,-999.0,89,-99.99,,,0.00,weatherlink.com 1.10,2017-07-27 11:35:00,
2017-07-27 04:50:00,65.1,62.0,29.88,WSW,239,0.0,-999.0,89,-99.99,,,0.00,weatherlink.com 1.10,2017-07-27 11:50:00,
2017-07-27 05:05:00,65.0,62.0,29.88,WSW,239,0.0,-999.0,89,-99.99,,,0.00,weatherlink.com 1.10,2017-07-27 12:05:00,
2017-07-27 05:20:00,64.7,62.0,29.88,WSW,239,0.0,-999.0,89,-99.99,,,0.00,weatherlink.com 1.10,2017-07-27 12:20:00,
2017-07-27 05:35:00,64.2,61.0,29.88,WSW,239,0.0,-999.0,89,-99.99,,,0.00,weatherlink.com 1.10,2017-07-27 12:35:00,
2017-07-27 05:50:00,64.1,61.0,29.88,WSW,239,0.0,-999.0,90,-99.99,,,0.00,weatherlink.com 1.10,2017-07-27 12:50:00,
2017-07-27 06:05:00,63.9,61.0,29.88,WSW,239,0.0,-999.0,90,-99.99,,,0.00,weatherlink.com 1.10,2017-07-27 13:05:00,
2017-07-27 06:20:00,64.0,61.0,29.88,WSW,239,0.0,-999.0,90,-99.99,,,0.00,weatherlink.com 1.10,2017-07-27 13:20:00,
2017-07-27 06:35:00,64.4,62.0,29.88,WSW,239,0.0,-999.0,90,-99.99,,,0.00,weatherlink.com 1.10,2017-07-27 13:35:00,
2017-07-27 07:08:00,65.5,63.0,29.88,WSW,239,0.0,-999.0,91,-99.99,,,0.00,weatherlink.com 1.10,2017-07-27 14:08:00,
2017-07-27 07:20:00,66.8,64.0,29.89,WSW,239,0.0,-999.0,91,-99.99,,,0.00,weatherlink.com 1.10,2017-07-27 14:20:00,
2017-07-27 07:35:00,68.1,65.0,29.88,WSW,239,0.0,-999.0,90,-99.99,,,0.00,weatherlink.com 1.10,2017-07-27 14:35:00,
2017-07-27 07:50:00,69.2,66.0,29.88,WSW,242,0.0,-999.0,90,-99.99,,,0.00,weatherlink.com 1.10,2017-07-27 14:50:00,
2017-07-27 08:05:00,69.9,66.0,29.88,WSW,250,0.0,-999.0,87,-99.99,,,0.00,weatherlink.com 1.10,2017-07-27 15:05:00,
2017-07-27 08:20:00,70.8,66.0,29.89,WSW,250,0.0,-999.0,84,-99.99,,,0.00,weatherlink.com 1.10,2017-07-27 15:20:00,
2017-07-27 08:35:00,71.4,66.0,29.88,WSW,250,0.0,-999.0,83,-99.99,,,0.00,weatherlink.com 1.10,2017-07-27 15:35:00,
2017-07-27 08:51:00,72.5,66.0,29.88,WSW,250,0.0,-999.0,81,-99.99,,,0.00,weatherlink.com 1.10,2017-07-27 15:51:00,
2017-07-27 09:06:00,73.3,66.0,29.88,WSW,256,0.0,-999.0,78,-99.99,,,0.00,weatherlink.com 1.10,2017-07-27 16:06:00,
2017-07-27 09:21:00,73.6,66.0,29.88,SSW,194,0.0,-999.0,77,-99.99,,,0.00,weatherlink.com 1.10,2017-07-27 16:21:00,
2017-07-27 09:36:00,74.5,67.0,29.88,SSE,148,0.0,-999.0,76,-99.99,,,0.00,weatherlink.com 1.10,2017-07-27 16:36:00,
2017-07-27 09:51:00,75.3,67.0,29.88,SE,129,0.0,-999.0,75,-99.99,,,0.00,weatherlink.com 1.10,2017-07-27 16:51:00,
2017-07-27 10:06:00,76.2,67.0,29.88,SE,140,0.0,-999.0,73,-99.99,,,0.00,weatherlink.com 1.10,2017-07-27 17:06:00,